Regional Weather Roundup
Issued by NWS

Home | Current Version | Previous Version | Text Only | Print | Product List | Glossary On
Versions: 1 2 3 4 5 6 7 8 9 10 11 12 13 14 15 16 17 18 19 20 21 22 23 24 25 26 27 28 29 30 31 32 33 34 35 36 37 38 39 40 41 42 43 44 45 46 47 48 49 50
000
ASUS43 KFSD 272010
RWRSD

WEATHER ROUNDUP FOR SOUTH DAKOTA
NATIONAL WEATHER SERVICE SIOUX FALLS SD
300 PM CDT MON JUL 27 2015

NOTE: "FAIR" INDICATES FEW OR NO CLOUDS BELOW 12,000 FEET WITH NO
SIGNIFICANT WEATHER AND/OR OBSTRUCTIONS TO VISIBILITY.


SDZ001>005-009-010-012>017-272100-
NORTHWEST AND NORTH CENTRAL SOUTH DAKOTA

CITY           SKY/WX    TMP DP  RH WIND       PRES   REMARKS
BUFFALO          N/A     93  60  33 SE14      29.63F
FAITH            N/A     92  61  35 S28G35    29.70F
MOBRIDGE       SUNNY     93  67  42 SE22G30   29.70F HX  96
$$

SDZ012>016-024>037-041>051-057-063-072>074-272100-
SOUTHWEST AND SOUTH CENTRAL SOUTH DAKOTA

CITY           SKY/WX    TMP DP  RH WIND       PRES   REMARKS
RAPID CTY ARPT MOSUNNY   90  65  43 S15G24    29.71F
PIERRE         SUNNY     95  63  34 SE25G35   29.69F HX  96
CUSTER         SUNNY     86  58  38 SE10      29.89S
ELLSWORTH AFB  MOSUNNY   93  63  36 S22G31    29.69F
PHILIP         SUNNY     92  67  43 SE20G26   29.69F HX  95
PINE RIDGE     SUNNY     93  62  35 SE15      29.73F
SPEARFISH      FAIR      84  63  48 E6        29.76F
WINNER         FAIR      92  64  39 S17G32    29.76F
$$

SDZ004>011-016>023-039-040-272100-
NORTHEAST SOUTH DAKOTA

CITY           SKY/WX    TMP DP  RH WIND       PRES   REMARKS
ABERDEEN       MOSUNNY   91  75  59 S15       29.78S HX 101
WATERTOWN      PTSUNNY   88  74  63 S18G25    29.84F HX  96
BROOKINGS      SUNNY     86  68  54 S17       29.87F
SISSETON         N/A     86  74  67 S17G25    29.81F
$$

SDZ017-020-022-023-036>040-048>070-272100-
SOUTHEAST SOUTH DAKOTA

CITY           SKY/WX    TMP DP  RH WIND       PRES   REMARKS
SIOUX FALLS    MOSUNNY   84  69  60 S22       29.85F
HURON          MOSUNNY   89  73  59 S18G29    29.78S HX  97
CHAMBERLAIN    MOSUNNY   89  72  57 SE17G23   29.76S HX  96
MITCHELL       MOSUNNY   86  71  60 SE24G31   29.80F
YANKTON        PTSUNNY   86  75  70 SE21      29.81F HX  95
$$

ABBREVIATIONS USED IN REMARKS
   TC - TEMPERATURE IN CELSIUS
  WCI - WIND CHILL INDEX
   HX - HEAT INDEX
  VSB - VISIBILITY




USA.gov is the U.S. government's official web portal to all federal, state and local government web resources and services.